owner,sensor,date,latitude,longitude,vertical_datum,sea_water_practical_salinity,qcFlag 
TABS,ioos:station:wmo:42050:1,2011-10-01T00:00:00Z,28.8425,-94.2433,2.0,35.5449,11111222 
TABS,ioos:station:wmo:42050:1,2011-10-01T00:30:00Z,28.8425,-94.2433,2.0,35.5634,11111222 
TABS,ioos:station:wmo:42050:1,2011-10-01T01:00:00Z,28.8425,-94.2433,2.0,35.5672,11111222 
TABS,ioos:station:wmo:42050:1,2011-10-01T01:30:00Z,28.8425,-94.2433,2.0,35.5623,11111222 
TABS,ioos:station:wmo:42050:1,2011-10-01T02:00:00Z,28.8425,-94.2433,2.0,35.5567,11111222 
TABS,ioos:station:wmo:42050:1,2011-10-01T02:30:00Z,28.8425,-94.2433,2.0,35.5652,11111222 
TABS,ioos:station:wmo:42050:1,2011-10-01T03:00:00Z,28.8425,-94.2433,2.0,35.5624,11111222 
TABS,ioos:station:wmo:42050:1,2011-10-01T03:30:00Z,28.8425,-94.2433,2.0,35.5604,11111222 
TABS,ioos:station:wmo:42050:1,2011-10-01T04:00:00Z,28.8425,-94.2433,2.0,35.5617,11111222 
TABS,ioos:station:wmo:42050:1,2011-10-01T04:30:00Z,28.8425,-94.2433,2.0,35.5627,11111222 
TABS,ioos:station:wmo:42050:1,2011-10-01T05:00:00Z,28.8425,-94.2433,2.0,35.5618,11111222 
TABS,ioos:station:wmo:42050:1,2011-10-01T05:30:00Z,28.8425,-94.2433,2.0,35.5603,11111222 
TABS,ioos:station:wmo:42050:1,2011-10-01T06:00:00Z,28.8425,-94.2433,2.0,35.5583,11111222 
TABS,ioos:station:wmo:42050:1,2011-10-01T06:30:00Z,28.8425,-94.2433,2.0,35.561,11111222 
TABS,ioos:station:wmo:42050:1,2011-10-01T07:00:00Z,28.8425,-94.2433,2.0,35.5602,11111222 
TABS,ioos:station:wmo:42050:1,2011-10-01T07:30:00Z,28.8425,-94.2433,2.0,35.5595,11111222 
TABS,ioos:station:wmo:42050:1,2011-10-01T08:00:00Z,28.8425,-94.2433,2.0,35.5612,11111222 
TABS,ioos:station:wmo:42050:1,2011-10-01T08:30:00Z,28.8425,-94.2433,2.0,35.5659,11111222 
TABS,ioos:station:wmo:42050:1,2011-10-01T09:00:00Z,28.8425,-94.2433,2.0,35.5695,11111222 
TABS,ioos:station:wmo:42050:1,2011-10-01T09:30:00Z,28.8425,-94.2433,2.0,35.5689,11111222 
TABS,ioos:station:wmo:42050:1,2011-10-01T10:00:00Z,28.8425,-94.2433,2.0,35.5659,11111222 
TABS,ioos:station:wmo:42050:1,2011-10-01T10:30:00Z,28.8425,-94.2433,2.0,35.5594,11111222 
TABS,ioos:station:wmo:42050:1,2011-10-01T11:00:00Z,28.8425,-94.2433,2.0,35.5582,11111222 
TABS,ioos:station:wmo:42050:1,2011-10-01T11:30:00Z,28.8425,-94.2433,2.0,35.5511,11111222 
TABS,ioos:station:wmo:42050:1,2011-10-01T12:00:00Z,28.8425,-94.2433,2.0,35.5454,11111222 
TABS,ioos:station:wmo:42050:1,2011-10-01T12:30:00Z,28.8425,-94.2433,2.0,35.5407,11111222 
TABS,ioos:station:wmo:42050:1,2011-10-01T13:00:00Z,28.8425,-94.2433,2.0,35.5302,11111222 
TABS,ioos:station:wmo:42050:1,2011-10-01T13:30:00Z,28.8425,-94.2433,2.0,35.5236,11111222 
TABS,ioos:station:wmo:42050:1,2011-10-01T14:00:00Z,28.8425,-94.2433,2.0,35.5272,11111222 
TABS,ioos:station:wmo:42050:1,2011-10-01T14:30:00Z,28.8425,-94.2433,2.0,35.5258,11111222 
TABS,ioos:station:wmo:42050:1,2011-10-01T15:00:00Z,28.8425,-94.2433,2.0,35.5257,11111222 
TABS,ioos:station:wmo:42050:1,2011-10-01T15:30:00Z,28.8425,-94.2433,2.0,35.5272,11111222 
TABS,ioos:station:wmo:42050:1,2011-10-01T16:00:00Z,28.8425,-94.2433,2.0,35.5195,11111222 
TABS,ioos:station:wmo:42050:1,2011-10-01T16:30:00Z,28.8425,-94.2433,2.0,35.524,11111222 
TABS,ioos:station:wmo:42050:1,2011-10-01T17:00:00Z,28.8425,-94.2433,2.0,35.5366,11111222 
TABS,ioos:station:wmo:42050:1,2011-10-01T17:30:00Z,28.8425,-94.2433,2.0,35.5413,11111222 
TABS,ioos:station:wmo:42050:1,2011-10-01T18:00:00Z,28.8425,-94.2433,2.0,35.5403,11111222 
TABS,ioos:station:wmo:42050:1,2011-10-01T18:30:00Z,28.8425,-94.2433,2.0,35.5413,11111222 
TABS,ioos:station:wmo:42050:1,2011-10-01T19:00:00Z,28.8425,-94.2433,2.0,35.5395,11111222 
TABS,ioos:station:wmo:42050:1,2011-10-01T19:30:00Z,28.8425,-94.2433,2.0,35.5434,11111222 
TABS,ioos:station:wmo:42050:1,2011-10-01T20:00:00Z,28.8425,-94.2433,2.0,35.5474,11111222 
TABS,ioos:station:wmo:42050:1,2011-10-01T20:30:00Z,28.8425,-94.2433,2.0,35.5537,11111222 
TABS,ioos:station:wmo:42050:1,2011-10-01T21:00:00Z,28.8425,-94.2433,2.0,35.5653,11111222 
TABS,ioos:station:wmo:42050:1,2011-10-01T21:30:00Z,28.8425,-94.2433,2.0,35.5748,11111222 
TABS,ioos:station:wmo:42050:1,2011-10-01T22:00:00Z,28.8425,-94.2433,2.0,35.583,11111222 
TABS,ioos:station:wmo:42050:1,2011-10-01T22:30:00Z,28.8425,-94.2433,2.0,35.5829,11111222 
TABS,ioos:station:wmo:42050:1,2011-10-01T23:00:00Z,28.8425,-94.2433,2.0,35.5904,11111222 
TABS,ioos:station:wmo:42050:1,2011-10-01T23:30:00Z,28.8425,-94.2433,2.0,35.5926,11111222 
TABS,ioos:station:wmo:42050:1,2011-10-02T00:00:00Z,28.8425,-94.2433,2.0,35.5885,11111222 
TABS,ioos:station:wmo:42050:1,2011-10-02T00:30:00Z,28.8425,-94.2433,2.0,35.5924,11111222 
TABS,ioos:station:wmo:42050:1,2011-10-02T01:00:00Z,28.8425,-94.2433,2.0,35.5886,11111222 
TABS,ioos:station:wmo:42050:1,2011-10-02T01:30:00Z,28.8425,-94.2433,2.0,35.593,11111222 
TABS,ioos:station:wmo:42050:1,2011-10-02T02:00:00Z,28.8425,-94.2433,2.0,35.5837,11111222 
TABS,ioos:station:wmo:42050:1,2011-10-02T02:30:00Z,28.8425,-94.2433,2.0,35.5865,11111222 
TABS,ioos:station:wmo:42050:1,2011-10-02T03:00:00Z,28.8425,-94.2433,2.0,35.5846,11111222 
TABS,ioos:station:wmo:42050:1,2011-10-02T03:30:00Z,28.8425,-94.2433,2.0,35.5875,11111222 
TABS,ioos:station:wmo:42050:1,2011-10-02T04:00:00Z,28.8425,-94.2433,2.0,35.5877,11111222 
TABS,ioos:station:wmo:42050:1,2011-10-02T04:30:00Z,28.8425,-94.2433,2.0,35.5891,11111222 
TABS,ioos:station:wmo:42050:1,2011-10-02T05:00:00Z,28.8425,-94.2433,2.0,35.5891,11111222 
TABS,ioos:station:wmo:42050:1,2011-10-02T05:30:00Z,28.8425,-94.2433,2.0,35.5907,11111222 
TABS,ioos:station:wmo:42050:1,2011-10-02T06:00:00Z,28.8425,-94.2433,2.0,35.5857,11111222 
TABS,ioos:station:wmo:42050:1,2011-10-02T06:30:00Z,28.8425,-94.2433,2.0,35.5828,11111222 
TABS,ioos:station:wmo:42050:1,2011-10-02T07:00:00Z,28.8425,-94.2433,2.0,35.5843,11111222 
TABS,ioos:station:wmo:42050:1,2011-10-02T07:30:00Z,28.8425,-94.2433,2.0,35.5888,11111222 
TABS,ioos:station:wmo:42050:1,2011-10-02T08:00:00Z,28.8425,-94.2433,2.0,35.5823,11111222 
TABS,ioos:station:wmo:42050:1,2011-10-02T08:30:00Z,28.8425,-94.2433,2.0,35.5751,11111222 
TABS,ioos:station:wmo:42050:1,2011-10-02T09:00:00Z,28.8425,-94.2433,2.0,35.5755,11111222 
TABS,ioos:station:wmo:42050:1,2011-10-02T09:30:00Z,28.8425,-94.2433,2.0,35.5702,11111222 
TABS,ioos:station:wmo:42050:1,2011-10-02T10:00:00Z,28.8425,-94.2433,2.0,35.5701,11111222 
TABS,ioos:station:wmo:42050:1,2011-10-02T10:30:00Z,28.8425,-94.2433,2.0,35.5672,11111222 
TABS,ioos:station:wmo:42050:1,2011-10-02T11:00:00Z,28.8425,-94.2433,2.0,35.5646,11111222 
TABS,ioos:station:wmo:42050:1,2011-10-02T11:30:00Z,28.8425,-94.2433,2.0,35.5628,11111222 
TABS,ioos:station:wmo:42050:1,2011-10-02T12:00:00Z,28.8425,-94.2433,2.0,35.561,11111222 
TABS,ioos:station:wmo:42050:1,2011-10-02T12:30:00Z,28.8425,-94.2433,2.0,35.5625,11111222 
TABS,ioos:station:wmo:42050:1,2011-10-02T13:00:00Z,28.8425,-94.2433,2.0,35.5619,11111222 
TABS,ioos:station:wmo:42050:1,2011-10-02T13:30:00Z,28.8425,-94.2433,2.0,35.5616,11111222 
TABS,ioos:station:wmo:42050:1,2011-10-02T14:00:00Z,28.8425,-94.2433,2.0,35.5611,11111222 
TABS,ioos:station:wmo:42050:1,2011-10-02T14:30:00Z,28.8425,-94.2433,2.0,35.5583,11111222 
TABS,ioos:station:wmo:42050:1,2011-10-02T15:00:00Z,28.8425,-94.2433,2.0,35.5596,11111222 
TABS,ioos:station:wmo:42050:1,2011-10-02T15:30:00Z,28.8425,-94.2433,2.0,35.5775,11111222 
TABS,ioos:station:wmo:42050:1,2011-10-02T16:00:00Z,28.8425,-94.2433,2.0,35.5945,11111222 
TABS,ioos:station:wmo:42050:1,2011-10-02T16:30:00Z,28.8425,-94.2433,2.0,35.596,11111222 
TABS,ioos:station:wmo:42050:1,2011-10-02T17:00:00Z,28.8425,-94.2433,2.0,35.5909,11111222 
TABS,ioos:station:wmo:42050:1,2011-10-02T17:30:00Z,28.8425,-94.2433,2.0,35.5811,11111222 
TABS,ioos:station:wmo:42050:1,2011-10-02T18:00:00Z,28.8425,-94.2433,2.0,35.5663,11111222 
TABS,ioos:station:wmo:42050:1,2011-10-02T18:30:00Z,28.8425,-94.2433,2.0,35.5429,11111222 
TABS,ioos:station:wmo:42050:1,2011-10-02T19:00:00Z,28.8425,-94.2433,2.0,35.5343,11111222 
TABS,ioos:station:wmo:42050:1,2011-10-02T19:30:00Z,28.8425,-94.2433,2.0,35.5262,11111222 
TABS,ioos:station:wmo:42050:1,2011-10-02T20:00:00Z,28.8425,-94.2433,2.0,35.5251,11111222 
TABS,ioos:station:wmo:42050:1,2011-10-02T20:30:00Z,28.8425,-94.2433,2.0,35.5253,11111222 
TABS,ioos:station:wmo:42050:1,2011-10-02T21:00:00Z,28.8425,-94.2433,2.0,35.522,11111222 
TABS,ioos:station:wmo:42050:1,2011-10-02T21:30:00Z,28.8425,-94.2433,2.0,35.5268,11111222 
TABS,ioos:station:wmo:42050:1,2011-10-02T22:00:00Z,28.8425,-94.2433,2.0,35.5209,11111222 
TABS,ioos:station:wmo:42050:1,2011-10-02T22:30:00Z,28.8425,-94.2433,2.0,35.5163,11111222 
TABS,ioos:station:wmo:42050:1,2011-10-02T23:00:00Z,28.8425,-94.2433,2.0,35.5151,11111222 
TABS,ioos:station:wmo:42050:1,2011-10-02T23:30:00Z,28.8425,-94.2433,2.0,35.5119,11111222 
TABS,ioos:station:wmo:42050:1,2011-10-03T00:00:00Z,28.8425,-94.2433,2.0,35.508,11111222 
TABS,ioos:station:wmo:42050:1,2011-10-03T00:30:00Z,28.8425,-94.2433,2.0,35.5008,11111222 
TABS,ioos:station:wmo:42050:1,2011-10-03T01:00:00Z,28.8425,-94.2433,2.0,35.4978,11111222 
TABS,ioos:station:wmo:42050:1,2011-10-03T01:30:00Z,28.8425,-94.2433,2.0,35.4919,11111222 
TABS,ioos:station:wmo:42050:1,2011-10-03T02:00:00Z,28.8425,-94.2433,2.0,35.4889,11111222 
TABS,ioos:station:wmo:42050:1,2011-10-03T02:30:00Z,28.8425,-94.2433,2.0,35.4846,11111222 
TABS,ioos:station:wmo:42050:1,2011-10-03T03:00:00Z,28.8425,-94.2433,2.0,35.4858,11111222 
TABS,ioos:station:wmo:42050:1,2011-10-03T03:30:00Z,28.8425,-94.2433,2.0,35.4855,11111222 
TABS,ioos:station:wmo:42050:1,2011-10-03T04:00:00Z,28.8425,-94.2433,2.0,35.4829,11111222 
TABS,ioos:station:wmo:42050:1,2011-10-03T04:30:00Z,28.8425,-94.2433,2.0,35.4818,11111222 
TABS,ioos:station:wmo:42050:1,2011-10-03T05:00:00Z,28.8425,-94.2433,2.0,35.4781,11111222 
TABS,ioos:station:wmo:42050:1,2011-10-03T05:30:00Z,28.8425,-94.2433,2.0,35.4755,11111222 
TABS,ioos:station:wmo:42050:1,2011-10-03T06:00:00Z,28.8425,-94.2433,2.0,35.4756,11111222 
TABS,ioos:station:wmo:42050:1,2011-10-03T06:30:00Z,28.8425,-94.2433,2.0,35.4726,11111222 
TABS,ioos:station:wmo:42050:1,2011-10-03T07:00:00Z,28.8425,-94.2433,2.0,35.4705,11111222 
TABS,ioos:station:wmo:42050:1,2011-10-03T07:30:00Z,28.8425,-94.2433,2.0,35.4743,11111222 
TABS,ioos:station:wmo:42050:1,2011-10-03T08:00:00Z,28.8425,-94.2433,2.0,35.4722,11111222 
TABS,ioos:station:wmo:42050:1,2011-10-03T08:30:00Z,28.8425,-94.2433,2.0,35.47,11111222 
TABS,ioos:station:wmo:42050:1,2011-10-03T09:00:00Z,28.8425,-94.2433,2.0,35.4687,11111222 
TABS,ioos:station:wmo:42050:1,2011-10-03T09:30:00Z,28.8425,-94.2433,2.0,35.4693,11111222 
TABS,ioos:station:wmo:42050:1,2011-10-03T10:00:00Z,28.8425,-94.2433,2.0,35.4708,11111222 
TABS,ioos:station:wmo:42050:1,2011-10-03T10:30:00Z,28.8425,-94.2433,2.0,35.4676,11111222 
TABS,ioos:station:wmo:42050:1,2011-10-03T11:00:00Z,28.8425,-94.2433,2.0,35.4689,11111222 
TABS,ioos:station:wmo:42050:1,2011-10-03T11:30:00Z,28.8425,-94.2433,2.0,35.4625,11111222 
TABS,ioos:station:wmo:42050:1,2011-10-03T12:00:00Z,28.8425,-94.2433,2.0,35.4643,11111222 
TABS,ioos:station:wmo:42050:1,2011-10-03T12:30:00Z,28.8425,-94.2433,2.0,35.4669,11111222 
TABS,ioos:station:wmo:42050:1,2011-10-03T13:00:00Z,28.8425,-94.2433,2.0,35.4689,11111222 
TABS,ioos:station:wmo:42050:1,2011-10-03T13:30:00Z,28.8425,-94.2433,2.0,35.4742,11111222 
TABS,ioos:station:wmo:42050:1,2011-10-03T14:00:00Z,28.8425,-94.2433,2.0,35.4769,11111222 
TABS,ioos:station:wmo:42050:1,2011-10-03T14:30:00Z,28.8425,-94.2433,2.0,35.4772,11111222 
TABS,ioos:station:wmo:42050:1,2011-10-03T15:00:00Z,28.8425,-94.2433,2.0,35.4757,11111222 
TABS,ioos:station:wmo:42050:1,2011-10-03T15:30:00Z,28.8425,-94.2433,2.0,35.4753,11111222 
TABS,ioos:station:wmo:42050:1,2011-10-03T16:00:00Z,28.8425,-94.2433,2.0,35.4758,11111222 
TABS,ioos:station:wmo:42050:1,2011-10-03T16:30:00Z,28.8425,-94.2433,2.0,35.4707,11111222 
TABS,ioos:station:wmo:42050:1,2011-10-03T17:00:00Z,28.8425,-94.2433,2.0,35.4671,11111222 
TABS,ioos:station:wmo:42050:1,2011-10-03T17:30:00Z,28.8425,-94.2433,2.0,35.4597,11111222 
TABS,ioos:station:wmo:42050:1,2011-10-03T18:00:00Z,28.8425,-94.2433,2.0,35.4434,11111222 
TABS,ioos:station:wmo:42050:1,2011-10-03T18:30:00Z,28.8425,-94.2433,2.0,35.404,11111222 
TABS,ioos:station:wmo:42050:1,2011-10-03T19:00:00Z,28.8425,-94.2433,2.0,35.4663,11111222 
TABS,ioos:station:wmo:42050:1,2011-10-03T19:30:00Z,28.8425,-94.2433,2.0,35.4516,11111222 
TABS,ioos:station:wmo:42050:1,2011-10-03T20:00:00Z,28.8425,-94.2433,2.0,35.4366,11111222 
TABS,ioos:station:wmo:42050:1,2011-10-03T20:30:00Z,28.8425,-94.2433,2.0,35.428,11111222 
TABS,ioos:station:wmo:42050:1,2011-10-03T21:00:00Z,28.8425,-94.2433,2.0,35.4167,11111222 
TABS,ioos:station:wmo:42050:1,2011-10-03T21:30:00Z,28.8425,-94.2433,2.0,35.4117,11111222 
TABS,ioos:station:wmo:42050:1,2011-10-03T22:00:00Z,28.8425,-94.2433,2.0,35.4085,11111222 
TABS,ioos:station:wmo:42050:1,2011-10-03T22:30:00Z,28.8425,-94.2433,2.0,35.4074,11111222 
TABS,ioos:station:wmo:42050:1,2011-10-03T23:00:00Z,28.8425,-94.2433,2.0,35.4068,11111222 
TABS,ioos:station:wmo:42050:1,2011-10-03T23:30:00Z,28.8425,-94.2433,2.0,35.4193,11111222 
TABS,ioos:station:wmo:42050:1,2011-10-04T00:00:00Z,28.8425,-94.2433,2.0,35.4164,11111222 
TABS,ioos:station:wmo:42050:1,2011-10-04T00:30:00Z,28.8425,-94.2433,2.0,35.4173,11111222 
TABS,ioos:station:wmo:42050:1,2011-10-04T01:00:00Z,28.8425,-94.2433,2.0,35.4162,11111222 
TABS,ioos:station:wmo:42050:1,2011-10-04T01:30:00Z,28.8425,-94.2433,2.0,35.4142,11111222 
TABS,ioos:station:wmo:42050:1,2011-10-04T02:00:00Z,28.8425,-94.2433,2.0,35.4139,11111222 
TABS,ioos:station:wmo:42050:1,2011-10-04T02:30:00Z,28.8425,-94.2433,2.0,35.4156,11111222 
TABS,ioos:station:wmo:42050:1,2011-10-04T03:00:00Z,28.8425,-94.2433,2.0,35.4154,11111222 
TABS,ioos:station:wmo:42050:1,2011-10-04T03:30:00Z,28.8425,-94.2433,2.0,35.4035,11111222 
TABS,ioos:station:wmo:42050:1,2011-10-04T04:00:00Z,28.8425,-94.2433,2.0,35.4007,11111222 
TABS,ioos:station:wmo:42050:1,2011-10-04T04:30:00Z,28.8425,-94.2433,2.0,35.4027,11111222 
TABS,ioos:station:wmo:42050:1,2011-10-04T05:00:00Z,28.8425,-94.2433,2.0,35.3996,11111222 
TABS,ioos:station:wmo:42050:1,2011-10-04T05:30:00Z,28.8425,-94.2433,2.0,35.4021,11111222 
TABS,ioos:station:wmo:42050:1,2011-10-04T06:00:00Z,28.8425,-94.2433,2.0,35.3979,11111222 
TABS,ioos:station:wmo:42050:1,2011-10-04T06:30:00Z,28.8425,-94.2433,2.0,35.3955,11111222 
TABS,ioos:station:wmo:42050:1,2011-10-04T07:00:00Z,28.8425,-94.2433,2.0,35.3947,11111222 
TABS,ioos:station:wmo:42050:1,2011-10-04T07:30:00Z,28.8425,-94.2433,2.0,35.3884,11111222 
TABS,ioos:station:wmo:42050:1,2011-10-04T08:00:00Z,28.8425,-94.2433,2.0,35.3831,11111222 
TABS,ioos:station:wmo:42050:1,2011-10-04T08:30:00Z,28.8425,-94.2433,2.0,35.376,11111222 
TABS,ioos:station:wmo:42050:1,2011-10-04T09:00:00Z,28.8425,-94.2433,2.0,35.371,11111222 
TABS,ioos:station:wmo:42050:1,2011-10-04T09:30:00Z,28.8425,-94.2433,2.0,35.3713,11111222 
TABS,ioos:station:wmo:42050:1,2011-10-04T10:00:00Z,28.8425,-94.2433,2.0,35.3712,11111222 
TABS,ioos:station:wmo:42050:1,2011-10-04T10:30:00Z,28.8425,-94.2433,2.0,35.3723,11111222 
TABS,ioos:station:wmo:42050:1,2011-10-04T11:00:00Z,28.8425,-94.2433,2.0,35.3718,11111222 
TABS,ioos:station:wmo:42050:1,2011-10-04T11:30:00Z,28.8425,-94.2433,2.0,35.3725,11111222 
TABS,ioos:station:wmo:42050:1,2011-10-04T12:00:00Z,28.8425,-94.2433,2.0,35.3684,11111222 
TABS,ioos:station:wmo:42050:1,2011-10-04T12:30:00Z,28.8425,-94.2433,2.0,35.3675,11111222 
TABS,ioos:station:wmo:42050:1,2011-10-04T13:00:00Z,28.8425,-94.2433,2.0,35.3668,11111222 
TABS,ioos:station:wmo:42050:1,2011-10-04T13:30:00Z,28.8425,-94.2433,2.0,35.3667,11111222 
TABS,ioos:station:wmo:42050:1,2011-10-04T14:00:00Z,28.8425,-94.2433,2.0,35.3674,11111222 
TABS,ioos:station:wmo:42050:1,2011-10-04T14:30:00Z,28.8425,-94.2433,2.0,35.3638,11111222 
TABS,ioos:station:wmo:42050:1,2011-10-04T15:00:00Z,28.8425,-94.2433,2.0,35.3633,11111222 
TABS,ioos:station:wmo:42050:1,2011-10-04T15:30:00Z,28.8425,-94.2433,2.0,35.3641,11111222 
TABS,ioos:station:wmo:42050:1,2011-10-04T16:00:00Z,28.8425,-94.2433,2.0,35.3625,11111222 
TABS,ioos:station:wmo:42050:1,2011-10-04T16:30:00Z,28.8425,-94.2433,2.0,35.3616,11111222 
TABS,ioos:station:wmo:42050:1,2011-10-04T17:00:00Z,28.8425,-94.2433,2.0,35.3476,11111222 
TABS,ioos:station:wmo:42050:1,2011-10-04T17:30:00Z,28.8425,-94.2433,2.0,35.3515,11111222 
TABS,ioos:station:wmo:42050:1,2011-10-04T18:00:00Z,28.8425,-94.2433,2.0,35.3557,11111222 
TABS,ioos:station:wmo:42050:1,2011-10-04T18:30:00Z,28.8425,-94.2433,2.0,35.3497,11111222 
TABS,ioos:station:wmo:42050:1,2011-10-04T19:00:00Z,28.8425,-94.2433,2.0,35.3637,11111222 
TABS,ioos:station:wmo:42050:1,2011-10-04T19:30:00Z,28.8425,-94.2433,2.0,35.363,11111222 
TABS,ioos:station:wmo:42050:1,2011-10-04T20:00:00Z,28.8425,-94.2433,2.0,35.3531,11111222 
TABS,ioos:station:wmo:42050:1,2011-10-04T20:30:00Z,28.8425,-94.2433,2.0,35.3524,11111222 
TABS,ioos:station:wmo:42050:1,2011-10-04T21:00:00Z,28.8425,-94.2433,2.0,35.3499,11111222 
TABS,ioos:station:wmo:42050:1,2011-10-04T21:30:00Z,28.8425,-94.2433,2.0,35.3669,11111222 
TABS,ioos:station:wmo:42050:1,2011-10-04T22:00:00Z,28.8425,-94.2433,2.0,35.3306,11111222 
TABS,ioos:station:wmo:42050:1,2011-10-04T22:30:00Z,28.8425,-94.2433,2.0,35.3212,11111222 
TABS,ioos:station:wmo:42050:1,2011-10-04T23:00:00Z,28.8425,-94.2433,2.0,35.313,11111222 
TABS,ioos:station:wmo:42050:1,2011-10-04T23:30:00Z,28.8425,-94.2433,2.0,35.3082,11111222 
TABS,ioos:station:wmo:42050:1,2011-10-05T00:00:00Z,28.8425,-94.2433,2.0,35.312,11111222 
TABS,ioos:station:wmo:42050:1,2011-10-05T00:30:00Z,28.8425,-94.2433,2.0,35.3062,11111222 
TABS,ioos:station:wmo:42050:1,2011-10-05T01:00:00Z,28.8425,-94.2433,2.0,35.3021,11111222 
TABS,ioos:station:wmo:42050:1,2011-10-05T01:30:00Z,28.8425,-94.2433,2.0,35.2866,11111222 
TABS,ioos:station:wmo:42050:1,2011-10-05T02:00:00Z,28.8425,-94.2433,2.0,35.2936,11111222 
TABS,ioos:station:wmo:42050:1,2011-10-05T02:30:00Z,28.8425,-94.2433,2.0,35.2937,11111222 
TABS,ioos:station:wmo:42050:1,2011-10-05T03:00:00Z,28.8425,-94.2433,2.0,35.2817,11111222 
TABS,ioos:station:wmo:42050:1,2011-10-05T03:30:00Z,28.8425,-94.2433,2.0,35.2775,11111222 
TABS,ioos:station:wmo:42050:1,2011-10-05T04:00:00Z,28.8425,-94.2433,2.0,35.2744,11111222 
TABS,ioos:station:wmo:42050:1,2011-10-05T04:30:00Z,28.8425,-94.2433,2.0,35.2744,11111222 
TABS,ioos:station:wmo:42050:1,2011-10-05T05:00:00Z,28.8425,-94.2433,2.0,35.2394,11111222 
TABS,ioos:station:wmo:42050:1,2011-10-05T05:30:00Z,28.8425,-94.2433,2.0,35.2543,11111222 
TABS,ioos:station:wmo:42050:1,2011-10-05T06:00:00Z,28.8425,-94.2433,2.0,35.2706,11111222 
TABS,ioos:station:wmo:42050:1,2011-10-05T06:30:00Z,28.8425,-94.2433,2.0,35.2789,11111222 
TABS,ioos:station:wmo:42050:1,2011-10-05T07:00:00Z,28.8425,-94.2433,2.0,35.2767,11111222 
TABS,ioos:station:wmo:42050:1,2011-10-05T07:30:00Z,28.8425,-94.2433,2.0,35.2833,11111222 
TABS,ioos:station:wmo:42050:1,2011-10-05T08:00:00Z,28.8425,-94.2433,2.0,35.2827,11111222 
TABS,ioos:station:wmo:42050:1,2011-10-05T08:30:00Z,28.8425,-94.2433,2.0,35.2779,11111222 
TABS,ioos:station:wmo:42050:1,2011-10-05T09:00:00Z,28.8425,-94.2433,2.0,35.2773,11111222 
TABS,ioos:station:wmo:42050:1,2011-10-05T09:30:00Z,28.8425,-94.2433,2.0,35.2753,11111222 
TABS,ioos:station:wmo:42050:1,2011-10-05T10:00:00Z,28.8425,-94.2433,2.0,35.2742,11111222 
TABS,ioos:station:wmo:42050:1,2011-10-05T10:30:00Z,28.8425,-94.2433,2.0,35.2763,11111222 
TABS,ioos:station:wmo:42050:1,2011-10-05T11:00:00Z,28.8425,-94.2433,2.0,35.2748,11111222 
TABS,ioos:station:wmo:42050:1,2011-10-05T11:30:00Z,28.8425,-94.2433,2.0,35.2733,11111222 
TABS,ioos:station:wmo:42050:1,2011-10-05T12:00:00Z,28.8425,-94.2433,2.0,35.2741,11111222 
TABS,ioos:station:wmo:42050:1,2011-10-05T12:30:00Z,28.8425,-94.2433,2.0,35.2764,11111222 
TABS,ioos:station:wmo:42050:1,2011-10-05T13:00:00Z,28.8425,-94.2433,2.0,35.2744,11111222 
TABS,ioos:station:wmo:42050:1,2011-10-05T13:30:00Z,28.8425,-94.2433,2.0,35.2767,11111222 
TABS,ioos:station:wmo:42050:1,2011-10-05T14:00:00Z,28.8425,-94.2433,2.0,35.2876,11111222 
TABS,ioos:station:wmo:42050:1,2011-10-05T14:30:00Z,28.8425,-94.2433,2.0,35.2892,11111222 
TABS,ioos:station:wmo:42050:1,2011-10-05T15:00:00Z,28.8425,-94.2433,2.0,35.2909,11111222 
TABS,ioos:station:wmo:42050:1,2011-10-05T15:30:00Z,28.8425,-94.2433,2.0,35.2871,11111222 
TABS,ioos:station:wmo:42050:1,2011-10-05T16:00:00Z,28.8425,-94.2433,2.0,35.2721,11111222 
TABS,ioos:station:wmo:42050:1,2011-10-05T16:30:00Z,28.8425,-94.2433,2.0,35.2646,11111222 
TABS,ioos:station:wmo:42050:1,2011-10-05T17:00:00Z,28.8425,-94.2433,2.0,35.2607,11111222 
TABS,ioos:station:wmo:42050:1,2011-10-05T17:30:00Z,28.8425,-94.2433,2.0,35.2487,11111222 
TABS,ioos:station:wmo:42050:1,2011-10-05T18:00:00Z,28.8425,-94.2433,2.0,35.2395,11111222 
TABS,ioos:station:wmo:42050:1,2011-10-05T18:30:00Z,28.8425,-94.2433,2.0,35.2334,11111222 
TABS,ioos:station:wmo:42050:1,2011-10-05T19:00:00Z,28.8425,-94.2433,2.0,35.2245,11111222 
TABS,ioos:station:wmo:42050:1,2011-10-05T19:30:00Z,28.8425,-94.2433,2.0,35.2235,11111222 
TABS,ioos:station:wmo:42050:1,2011-10-05T20:00:00Z,28.8425,-94.2433,2.0,35.2251,11111222 
TABS,ioos:station:wmo:42050:1,2011-10-05T20:30:00Z,28.8425,-94.2433,2.0,35.2421,11111222 
TABS,ioos:station:wmo:42050:1,2011-10-05T21:00:00Z,28.8425,-94.2433,2.0,35.2373,11111222 
TABS,ioos:station:wmo:42050:1,2011-10-05T21:30:00Z,28.8425,-94.2433,2.0,35.2304,11111222 
TABS,ioos:station:wmo:42050:1,2011-10-05T22:00:00Z,28.8425,-94.2433,2.0,35.2247,11111222 
TABS,ioos:station:wmo:42050:1,2011-10-05T22:30:00Z,28.8425,-94.2433,2.0,35.2221,11111222 
TABS,ioos:station:wmo:42050:1,2011-10-05T23:00:00Z,28.8425,-94.2433,2.0,35.2189,11111222 
TABS,ioos:station:wmo:42050:1,2011-10-05T23:30:00Z,28.8425,-94.2433,2.0,35.2094,11111222 
TABS,ioos:station:wmo:42050:1,2011-10-06T00:00:00Z,28.8425,-94.2433,2.0,35.2009,11111222 
TABS,ioos:station:wmo:42050:1,2011-10-06T00:30:00Z,28.8425,-94.2433,2.0,35.1913,11111222 
TABS,ioos:station:wmo:42050:1,2011-10-06T01:00:00Z,28.8425,-94.2433,2.0,35.1915,11111222 
TABS,ioos:station:wmo:42050:1,2011-10-06T01:30:00Z,28.8425,-94.2433,2.0,35.1853,11111222 
TABS,ioos:station:wmo:42050:1,2011-10-06T02:00:00Z,28.8425,-94.2433,2.0,35.196,11111222 
TABS,ioos:station:wmo:42050:1,2011-10-06T02:30:00Z,28.8425,-94.2433,2.0,35.1826,11111222 
TABS,ioos:station:wmo:42050:1,2011-10-06T03:00:00Z,28.8425,-94.2433,2.0,35.1796,11111222 
TABS,ioos:station:wmo:42050:1,2011-10-06T03:30:00Z,28.8425,-94.2433,2.0,35.1809,11111222 
TABS,ioos:station:wmo:42050:1,2011-10-06T04:00:00Z,28.8425,-94.2433,2.0,35.1711,11111222 
TABS,ioos:station:wmo:42050:1,2011-10-06T04:30:00Z,28.8425,-94.2433,2.0,35.1539,11111222 
TABS,ioos:station:wmo:42050:1,2011-10-06T05:00:00Z,28.8425,-94.2433,2.0,35.1509,11111222 
TABS,ioos:station:wmo:42050:1,2011-10-06T05:30:00Z,28.8425,-94.2433,2.0,35.142,11111222 
TABS,ioos:station:wmo:42050:1,2011-10-06T06:00:00Z,28.8425,-94.2433,2.0,35.1384,11111222 
TABS,ioos:station:wmo:42050:1,2011-10-06T06:30:00Z,28.8425,-94.2433,2.0,35.1341,11111222 
TABS,ioos:station:wmo:42050:1,2011-10-06T07:00:00Z,28.8425,-94.2433,2.0,35.1308,11111222 
TABS,ioos:station:wmo:42050:1,2011-10-06T07:30:00Z,28.8425,-94.2433,2.0,35.1243,11111222 
TABS,ioos:station:wmo:42050:1,2011-10-06T08:00:00Z,28.8425,-94.2433,2.0,35.1213,11111222 
TABS,ioos:station:wmo:42050:1,2011-10-06T08:30:00Z,28.8425,-94.2433,2.0,35.122,11111222 
TABS,ioos:station:wmo:42050:1,2011-10-06T09:00:00Z,28.8425,-94.2433,2.0,35.1237,11111222 
TABS,ioos:station:wmo:42050:1,2011-10-06T09:30:00Z,28.8425,-94.2433,2.0,35.1318,11111222 
TABS,ioos:station:wmo:42050:1,2011-10-06T10:00:00Z,28.8425,-94.2433,2.0,35.1339,11111222 
TABS,ioos:station:wmo:42050:1,2011-10-06T10:30:00Z,28.8425,-94.2433,2.0,35.1285,11111222 
TABS,ioos:station:wmo:42050:1,2011-10-06T11:00:00Z,28.8425,-94.2433,2.0,35.1208,11111222 
TABS,ioos:station:wmo:42050:1,2011-10-06T11:30:00Z,28.8425,-94.2433,2.0,35.1246,11111222 
TABS,ioos:station:wmo:42050:1,2011-10-06T12:00:00Z,28.8425,-94.2433,2.0,35.1391,11111222 